TimeMDT,TemperatureF,Dew PointF,Humidity,Sea Level PressureIn,VisibilityMPH,Wind Direction,Wind SpeedMPH,Gust SpeedMPH,PrecipitationIn,Events,Conditions,WindDirDegrees,DateUTC
12:15 AM,46.4,46.4,100,29.90,10.0,SSE,3.5,-,N/A,,Clear,160,2013-05-18 06:15:00
12:35 AM,46.4,44.6,93,29.90,10.0,SE,6.9,-,N/A,,Clear,130,2013-05-18 06:35:00
12:55 AM,46.4,44.6,93,29.90,10.0,SSE,3.5,-,N/A,,Clear,150,2013-05-18 06:55:00
1:15 AM,46.4,44.6,93,29.91,10.0,South,5.8,-,N/A,,Scattered Clouds,190,2013-05-18 07:15:00
1:35 AM,46.4,44.6,93,29.92,10.0,South,3.5,-,N/A,,Overcast,170,2013-05-18 07:35:00
1:55 AM,46.4,44.6,93,29.92,10.0,NNE,3.5,-,N/A,,Overcast,20,2013-05-18 07:55:00
2:15 AM,46.4,46.4,100,29.92,5.0,North,3.5,-,N/A,,Overcast,10,2013-05-18 08:15:00
2:35 AM,46.4,46.4,100,29.92,5.0,North,3.5,-,N/A,,Overcast,350,2013-05-18 08:35:00
2:55 AM,46.4,46.4,100,29.91,5.0,Calm,Calm,-,N/A,,Overcast,0,2013-05-18 08:55:00
3:15 AM,46.4,46.4,100,29.89,10.0,NW,5.8,-,N/A,,Mostly Cloudy,320,2013-05-18 09:15:00
3:35 AM,46.4,46.4,100,29.89,10.0,North,3.5,-,N/A,,Partly Cloudy,10,2013-05-18 09:35:00
4:15 AM,46.4,46.4,100,29.89,10.0,Calm,Calm,-,N/A,,Scattered Clouds,0,2013-05-18 10:15:00
4:35 AM,46.4,46.4,100,29.89,10.0,Calm,Calm,-,N/A,,Mostly Cloudy,0,2013-05-18 10:35:00
4:55 AM,46.4,46.4,100,29.89,10.0,NE,3.5,-,N/A,,Overcast,50,2013-05-18 10:55:00
5:15 AM,46.4,46.4,100,29.89,9.0,ENE,3.5,-,N/A,,Overcast,60,2013-05-18 11:15:00
5:35 AM,48.2,46.4,93,29.90,10.0,Calm,Calm,-,N/A,,Overcast,0,2013-05-18 11:35:00
5:55 AM,48.2,46.4,93,29.92,10.0,South,4.6,-,0.01,,Overcast,180,2013-05-18 11:55:00
6:15 AM,48.2,46.4,93,29.92,6.0,South,5.8,-,0.05,,Overcast,180,2013-05-18 12:15:00
6:35 AM,48.2,46.4,93,29.93,5.0,South,4.6,-,0.08,,Mostly Cloudy,180,2013-05-18 12:35:00
6:55 AM,46.4,44.6,93,29.93,10.0,SW,10.4,-,0.16,,Mostly Cloudy,220,2013-05-18 12:55:00
7:35 AM,46.4,42.8,87,29.93,10.0,West,5.8,-,0.13,,Overcast,270,2013-05-18 13:35:00
7:55 AM,46.4,42.8,87,29.92,10.0,West,6.9,-,0.18,,Overcast,280,2013-05-18 13:55:00
8:15 AM,46.4,42.8,87,29.93,10.0,West,5.8,-,0.07,,Overcast,270,2013-05-18 14:15:00
8:36 AM,46.4,42.8,87,29.93,10.0,WSW,4.6,-,0.12,,Overcast,250,2013-05-18 14:36:00
8:55 AM,44.6,42.8,93,29.94,10.0,SW,9.2,-,0.21,,Overcast,230,2013-05-18 14:55:00
9:15 AM,44.6,42.8,93,29.94,9.0,SW,8.1,-,0.05,,Overcast,230,2013-05-18 15:15:00
9:35 AM,46.4,44.6,93,29.95,10.0,WSW,8.1,-,0.11,,Overcast,250,2013-05-18 15:35:00
9:55 AM,46.4,42.8,87,29.94,10.0,West,5.8,-,0.14,,Overcast,260,2013-05-18 15:55:00
10:16 AM,46.4,42.8,87,29.94,10.0,SW,6.9,-,0.03,,Overcast,230,2013-05-18 16:16:00
10:35 AM,46.4,44.6,93,29.94,10.0,West,3.5,-,0.05,,Overcast,270,2013-05-18 16:35:00
10:55 AM,48.2,44.6,87,29.93,10.0,WNW,5.8,-,0.05,,Overcast,290,2013-05-18 16:55:00
11:15 AM,48.2,42.8,82,29.93,10.0,WNW,6.9,-,N/A,,Overcast,300,2013-05-18 17:15:00
11:35 AM,51.8,44.6,76,29.92,10.0,North,4.6,-,N/A,,Overcast,360,2013-05-18 17:35:00
11:55 AM,51.8,44.6,76,29.92,10.0,NNW,9.2,-,0.01,,Mostly Cloudy,330,2013-05-18 17:55:00
12:35 PM,51.8,44.6,76,29.92,10.0,NNE,12.7,-,N/A,,Overcast,20,2013-05-18 18:35:00
1:15 PM,51.8,46.4,82,29.92,10.0,North,15.0,-,N/A,,Overcast,10,2013-05-18 19:15:00
1:35 PM,51.8,44.6,76,29.91,10.0,NNE,12.7,-,N/A,,Overcast,20,2013-05-18 19:35:00
1:55 PM,51.8,46.4,82,29.90,10.0,North,13.8,-,N/A,,Overcast,360,2013-05-18 19:55:00
2:15 PM,51.8,46.4,82,29.91,10.0,North,13.8,-,N/A,,Overcast,10,2013-05-18 20:15:00
2:35 PM,51.8,46.4,82,29.92,10.0,North,15.0,18.4,N/A,,Overcast,10,2013-05-18 20:35:00
3:15 PM,51.8,44.6,76,29.92,10.0,North,10.4,-,N/A,,Overcast,10,2013-05-18 21:15:00
3:35 PM,51.8,44.6,76,29.92,10.0,North,11.5,-,N/A,,Overcast,10,2013-05-18 21:35:00
3:55 PM,51.8,44.6,76,29.92,10.0,North,10.4,-,N/A,,Overcast,10,2013-05-18 21:55:00
4:15 PM,51.8,44.6,76,29.92,10.0,North,9.2,-,N/A,,Overcast,10,2013-05-18 22:15:00
4:35 PM,51.8,44.6,76,29.92,10.0,North,10.4,-,N/A,,Mostly Cloudy,10,2013-05-18 22:35:00
4:55 PM,51.8,46.4,82,29.92,10.0,North,8.1,-,N/A,,Overcast,360,2013-05-18 22:55:00
5:55 PM,51.8,44.6,76,29.93,10.0,NW,8.1,-,N/A,,Mostly Cloudy,310,2013-05-18 23:55:00
6:15 PM,51.8,46.4,82,29.93,10.0,WNW,5.8,-,N/A,,Overcast,290,2013-05-19 00:15:00
6:35 PM,51.8,44.6,76,29.93,10.0,WNW,5.8,-,N/A,,Overcast,290,2013-05-19 00:35:00
6:55 PM,51.8,44.6,76,29.94,10.0,WNW,4.6,-,N/A,,Overcast,300,2013-05-19 00:55:00
7:35 PM,50.0,44.6,82,29.94,10.0,Calm,Calm,-,0.01,,Overcast,0,2013-05-19 01:35:00
7:55 PM,50.0,44.6,82,29.95,10.0,WNW,5.8,-,0.01,,Overcast,290,2013-05-19 01:55:00
8:15 PM,50.0,44.6,82,29.95,10.0,WNW,8.1,-,N/A,,Overcast,290,2013-05-19 02:15:00
8:35 PM,48.2,44.6,87,29.95,10.0,West,3.5,-,N/A,,Overcast,280,2013-05-19 02:35:00
8:55 PM,48.2,44.6,87,29.94,10.0,NW,3.5,-,N/A,,Overcast,320,2013-05-19 02:55:00
9:15 PM,48.2,44.6,87,29.93,10.0,NW,5.8,-,N/A,,Overcast,320,2013-05-19 03:15:00
9:55 PM,48.2,44.6,87,29.92,10.0,Calm,Calm,-,N/A,,Overcast,0,2013-05-19 03:55:00
10:15 PM,48.2,44.6,87,29.94,10.0,NNE,4.6,-,N/A,,Overcast,30,2013-05-19 04:15:00
10:35 PM,48.2,44.6,87,29.95,10.0,NNE,3.5,-,N/A,,Overcast,30,2013-05-19 04:35:00
10:55 PM,48.2,44.6,87,29.96,10.0,NNE,5.8,-,0.01,,Overcast,20,2013-05-19 04:55:00
11:15 PM,48.2,44.6,87,29.96,10.0,North,5.8,-,N/A,,Overcast,350,2013-05-19 05:15:00
11:35 PM,48.2,44.6,87,29.96,10.0,North,5.8,-,0.01,,Overcast,350,2013-05-19 05:35:00
11:55 PM,48.2,44.6,87,29.95,10.0,NNW,3.5,-,0.02,,Overcast,340,2013-05-19 05:55:00